Location: Bukit Lungun
(2.6833°N, 113.9667°E)
Time: 12:08:32
(UTC+00:00)

Cosmos 1328 Rocket - Pass Details

Date: 02 March 2021
Orbit: 602 x 626 km, 82.5° (Epoch: 21 April)

Event Time Altitude Azimuth Distance (km) Brightness Sun altitude
Rises 21:41:05 0° 181° (S) 2,868 7.0 -14.0°
Reaches altitude 10° 21:43:18 10° 180° (S) 1,958 6.2 -13.4°
Maximum altitude 21:47:38 78° 93° (E) 621 3.7 -12.4°
Drops below altitude 10° 21:51:55 10° 7° (N) 1,940 6.1 -11.3°
Sets 21:54:07 0° 6° (N) 2,839 7.0 -10.7°
